Location: Newark
(12.4436°N, 0.6167°W)
Time: 11:43:50
(UTC+00:00)

Vanguard 2 - Pass Details

Date: 15 December 2019
Orbit: 553 x 2938 km, 32.9° (Epoch: 21 January)

Event Time Altitude Azimuth Distance (km) Brightness Sun altitude
Rises 09:41:17 0° 281° (W) 6,251 11.8 41.2°
Reaches altitude 10° 09:47:24 10° 267° (W) 4,825 11.4 42.2°
Maximum altitude 09:55:46 20° 227° (SW) 3,367 11.0 43.5°
Drops below altitude 10° 10:02:03 10° 183° (S) 3,463 11.5 44.5°
Sets 10:05:32 0° 166° (SSE) 4,061 11.9 45.0°
